Location: Overspoor
(51.4747°N, 5.6641°E)
Time: 21:55:12
(UTC+02:00)

NANOSAT C BR1 - Pass Details

Date: 09 July 2022
Orbit: 584 x 599 km, 98.0° (Epoch: 08 August)

Event Time Altitude Azimuth Distance (km) Brightness Sun altitude
Rises 02:43:52 0° 27° (NNE) 2,857 ? -14.9°
Reaches altitude 10° 02:46:39 10° 47° (NE) 1,950 ? -14.8°
Maximum altitude 02:49:34 18° 90° (E) 1,497 ? -14.7°
Drops below altitude 10° 02:52:28 10° 134° (SE) 1,941 ? -14.6°
Enters shadow 02:53:10 - 140° (SE) 2,142 ? -14.5°
